^^
Datos históricos de la estación: Murcia-Puente Tocinos
 
Diario Informe para Agosto 17, 2017 Unidades:  Métrico    Inglés   Ambas
« Anterior Día
Siguiente Día »
Diario Semanal Mensual Anual Configurable
  Actual: Máximo: Mínimo: Media:
Temperatura: 30.4 °C 30.4 °C 24.8 °C 26 °C
Punto de rocio: 22.1 °C 23.1 °C 21.8 °C 22.4 °C
Humedad: 61% 87% 61% 81%
Velocidad viento: 2.9km/h 9.5km/h 0.0km/h 4.6km/h
Racha viento: 5.6km/h 14.8km/h - -
VientoWest - - Sur
Presión: 1017.2 hPa 1017.2 hPa 1015.8 hPa -
Precipitación: 0.0 mm      
Historical Graphs
 
 
Tabla de datos para Agosto 17, 2017
Hora Temperatura Punto de rocio Presión Viento Velocidad viento Racha viento Humedad Intensidad lluvia(por hora) Nubes
00:03 26.8 °C 21.8 °C 1015.8 hPa NNE 3.9 km/h 7.4 km/h 74% 0.0 mm
00:08 26.8 °C 21.8 °C 1015.8 hPa NNE 3.9 km/h 7.4 km/h 74% 0.0 mm
00:13 26.8 °C 21.8 °C 1015.8 hPa NNE 3.9 km/h 7.4 km/h 74% 0.0 mm
00:18 26.8 °C 21.8 °C 1015.8 hPa NNE 3.9 km/h 7.4 km/h 74% 0.0 mm OVC
00:23 26.8 °C 21.8 °C 1015.8 hPa NNE 3.9 km/h 7.4 km/h 74% 0.0 mm OVC
00:28 26.8 °C 21.8 °C 1015.8 hPa NNE 3.9 km/h 7.4 km/h 74% 0.0 mm OVC
00:33 26.2 °C 21.8 °C 1015.8 hPa North 5.8 km/h 11.1 km/h 77% 0.0 mm OVC
00:38 26.2 °C 21.8 °C 1015.8 hPa ENE 6.4 km/h 7.4 km/h 77% 0.0 mm OVC
00:43 26.1 °C 21.8 °C 1015.8 hPa NNE 6.4 km/h 8.4 km/h 77% 0.0 mm OVC
00:48 26.1 °C 21.8 °C 1015.8 hPa North 5.8 km/h 9.3 km/h 77% 0.0 mm
00:53 26.0 °C 21.9 °C 1015.8 hPa NE 5.8 km/h 9.3 km/h 78% 0.0 mm
00:58 25.9 °C 21.8 °C 1015.8 hPa NNE 6.4 km/h 11.1 km/h 78% 0.0 mm
01:03 25.9 °C 22.0 °C 1015.8 hPa NNE 6.4 km/h 11.9 km/h 79% 0.0 mm
01:08 25.8 °C 21.9 °C 1015.8 hPa NE 8.7 km/h 13.0 km/h 79% 0.0 mm
01:13 25.7 °C 22.0 °C 1015.8 hPa NNE 8.7 km/h 9.3 km/h 80% 0.0 mm
01:18 25.6 °C 21.9 °C 1015.8 hPa NE 8.7 km/h 9.5 km/h 80% 0.0 mm CLR
01:23 25.6 °C 21.9 °C 1015.8 hPa NNE 8.7 km/h 9.3 km/h 80% 0.0 mm CLR
01:28 25.6 °C 22.1 °C 1015.8 hPa NE 8.4 km/h 11.1 km/h 81% 0.0 mm CLR
01:33 25.4 °C 22.1 °C 1015.8 hPa NE 8.4 km/h 11.1 km/h 82% 0.0 mm CLR
01:38 25.4 °C 22.1 °C 1015.8 hPa NE 8.7 km/h 13.0 km/h 82% 0.0 mm CLR
01:43 25.3 °C 22.2 °C 1015.8 hPa NE 8.7 km/h 11.1 km/h 83% 0.0 mm CLR
01:48 25.3 °C 22.2 °C 1015.8 hPa NE 7.6 km/h 12.2 km/h 83% 0.0 mm
01:53 25.3 °C 22.2 °C 1015.8 hPa NE 7.6 km/h 8.4 km/h 83% 0.0 mm
01:58 25.3 °C 22.4 °C 1015.8 hPa NE 7.6 km/h 14.8 km/h 84% 0.0 mm
02:03 25.3 °C 22.4 °C 1016.1 hPa NNE 7.6 km/h 13.0 km/h 84% 0.0 mm
02:08 25.2 °C 22.5 °C 1016.1 hPa NNE 9.5 km/h 9.5 km/h 85% 0.0 mm
02:13 25.2 °C 22.5 °C 1016.1 hPa NNE 9.5 km/h 11.1 km/h 85% 0.0 mm SCT
02:18 25.1 °C 22.4 °C 1016.1 hPa NNE 7.6 km/h 11.1 km/h 85% 0.0 mm
02:23 25.1 °C 22.4 °C 1016.1 hPa NE 7.6 km/h 9.3 km/h 85% 0.0 mm SCT
02:29 25.1 °C 22.4 °C 1016.1 hPa NNE 7.6 km/h 11.1 km/h 85% 0.0 mm SCT
02:34 25.1 °C 22.4 °C 1016.1 hPa NE 7.6 km/h 9.3 km/h 85% 0.0 mm
02:39 25.1 °C 22.4 °C 1016.1 hPa NNE 6.9 km/h 9.3 km/h 85% 0.0 mm
02:44 25.0 °C 22.3 °C 1016.1 hPa ENE 6.9 km/h 9.3 km/h 85% 0.0 mm
02:49 25.0 °C 22.3 °C 1015.8 hPa North 6.4 km/h 7.4 km/h 85% 0.0 mm OVC
02:54 25.0 °C 22.3 °C 1015.8 hPa NE 6.4 km/h 7.4 km/h 85% 0.0 mm OVC
02:59 24.9 °C 22.2 °C 1015.8 hPa North 5.0 km/h 7.4 km/h 85% 0.0 mm OVC
03:04 24.9 °C 22.2 °C 1016.1 hPa NNE 5.0 km/h 7.4 km/h 85% 0.0 mm OVC
03:09 24.8 °C 22.1 °C 1016.1 hPa NNE 4.7 km/h 9.3 km/h 85% 0.0 mm OVC
03:14 24.8 °C 22.1 °C 1016.1 hPa NE 4.7 km/h 7.6 km/h 85% 0.0 mm OVC
03:19 24.8 °C 22.1 °C 1015.8 hPa NNE 5.8 km/h 9.3 km/h 85% 0.0 mm
03:24 24.8 °C 22.3 °C 1015.8 hPa NE 5.8 km/h 7.4 km/h 86% 0.0 mm
03:29 24.9 °C 22.4 °C 1015.8 hPa NNE 6.4 km/h 7.6 km/h 86% 0.0 mm
03:34 25.0 °C 22.3 °C 1015.8 hPa NE 6.4 km/h 9.5 km/h 85% 0.0 mm
03:39 25.0 °C 22.3 °C 1015.8 hPa NNE 6.4 km/h 9.3 km/h 85% 0.0 mm
03:44 25.1 °C 22.4 °C 1015.8 hPa NE 6.4 km/h 6.4 km/h 85% 0.0 mm
03:49 25.1 °C 22.2 °C 1015.8 hPa NE 3.9 km/h 5.6 km/h 84% 0.0 mm CLR
03:54 25.1 °C 22.2 °C 1015.8 hPa NNE 3.9 km/h 4.7 km/h 84% 0.0 mm CLR
03:59 25.1 °C 22.2 °C 1015.8 hPa NNE 3.2 km/h 3.7 km/h 84% 0.0 mm CLR
04:04 25.1 °C 22.2 °C 1015.8 hPa North 3.2 km/h 3.9 km/h 84% 0.0 mm CLR
04:09 25.0 °C 22.1 °C 1015.8 hPa NNW 2.9 km/h 4.7 km/h 84% 0.0 mm CLR
04:14 24.9 °C 22.0 °C 1015.8 hPa NNW 2.9 km/h 3.7 km/h 84% 0.0 mm CLR
04:19 24.9 °C 22.0 °C 1015.8 hPa NNW 2.9 km/h 5.6 km/h 84% 0.0 mm CLR
04:24 24.9 °C 22.2 °C 1015.8 hPa NNW 2.9 km/h 3.7 km/h 85% 0.0 mm CLR
04:29 24.9 °C 22.2 °C 1015.8 hPa NW 2.9 km/h 3.7 km/h 85% 0.0 mm CLR
04:34 24.9 °C 22.2 °C 1015.8 hPa NW 2.9 km/h 5.6 km/h 85% 0.0 mm CLR
04:39 24.9 °C 22.2 °C 1015.8 hPa NNW 2.9 km/h 3.7 km/h 85% 0.0 mm CLR
04:44 24.8 °C 22.1 °C 1015.8 hPa NNW 2.9 km/h 3.9 km/h 85% 0.0 mm CLR
04:49 24.8 °C 22.1 °C 1015.8 hPa NNW 2.9 km/h 3.7 km/h 85% 0.0 mm CLR
04:54 24.8 °C 22.1 °C 1015.8 hPa NNW 2.9 km/h 3.9 km/h 85% 0.0 mm CLR
04:59 24.8 °C 22.1 °C 1015.8 hPa NNW 2.9 km/h 3.7 km/h 85% 0.0 mm CLR
05:04 24.9 °C 22.4 °C 1015.8 hPa NNW 2.9 km/h 3.7 km/h 86% 0.0 mm CLR
05:09 24.9 °C 22.4 °C 1015.8 hPa NW 2.9 km/h 3.7 km/h 86% 0.0 mm CLR
05:14 24.9 °C 22.4 °C 1015.8 hPa NW 2.9 km/h 3.7 km/h 86% 0.0 mm CLR
05:19 25.0 °C 22.5 °C 1015.8 hPa NW 2.3 km/h 3.7 km/h 86% 0.0 mm CLR
05:22 25.0 °C 22.3 °C 1015.8 hPa WNW 2.3 km/h 5.0 km/h 85% 0.0 mm CLR
05:27 25.0 °C 22.5 °C 1015.8 hPa WNW 2.9 km/h 3.7 km/h 86% 0.0 mm CLR
05:32 25.1 °C 22.6 °C 1015.8 hPa WNW 2.9 km/h 3.7 km/h 86% 0.0 mm CLR
05:33 25.1 °C 22.6 °C 1015.8 hPa WNW 2.9 km/h 5.6 km/h 86% 0.0 mm CLR
05:38 25.1 °C 22.6 °C 1015.8 hPa WNW 2.3 km/h 3.9 km/h 86% 0.0 mm CLR
05:43 25.2 °C 22.7 °C 1015.8 hPa WNW 2.3 km/h   86% 0.0 mm CLR
05:48 25.2 °C 22.7 °C 1015.8 hPa Calm   3.7 km/h 86% 0.0 mm CLR
05:53 25.2 °C 22.7 °C 1015.8 hPa Calm   3.7 km/h 86% 0.0 mm CLR
05:58 25.2 °C 22.7 °C 1015.8 hPa WNW 2.9 km/h 3.7 km/h 86% 0.0 mm CLR
06:03 25.2 °C 22.9 °C 1015.8 hPa WNW 2.9 km/h 3.9 km/h 87% 0.0 mm CLR
06:08 25.2 °C 22.7 °C 1015.8 hPa WNW 2.9 km/h 5.6 km/h 86% 0.0 mm CLR
06:13 25.2 °C 22.7 °C 1015.8 hPa WNW 2.9 km/h 4.7 km/h 86% 0.0 mm CLR
06:18 25.2 °C 22.9 °C 1015.8 hPa WNW 2.9 km/h 3.7 km/h 87% 0.0 mm CLR
06:23 25.2 °C 22.9 °C 1015.8 hPa NW 2.9 km/h 3.9 km/h 87% 0.0 mm CLR
06:28 25.2 °C 22.9 °C 1015.8 hPa NW 2.3 km/h 3.7 km/h 87% 0.0 mm CLR
06:33 25.2 °C 22.9 °C 1015.8 hPa NW 2.3 km/h 3.7 km/h 87% 0.0 mm CLR
06:39 25.2 °C 22.9 °C 1015.8 hPa NW 2.3 km/h 3.7 km/h 87% 0.0 mm CLR
06:43 25.2 °C 22.9 °C 1015.8 hPa NW 2.3 km/h 3.7 km/h 87% 0.0 mm CLR
06:49 25.2 °C 22.7 °C 1016.1 hPa Calm   5.6 km/h 86% 0.0 mm CLR
06:54 25.2 °C 22.5 °C 1016.1 hPa Calm   3.9 km/h 85% 0.0 mm CLR
06:59 25.2 °C 22.7 °C 1016.1 hPa ESE 3.2 km/h 3.7 km/h 86% 0.0 mm CLR
07:04 25.3 °C 23.0 °C 1016.1 hPa ESE 3.2 km/h 3.9 km/h 87% 0.0 mm CLR
07:09 25.3 °C 22.8 °C 1016.1 hPa SE 2.3 km/h 3.9 km/h 86% 0.0 mm CLR
07:14 25.3 °C 22.8 °C 1016.1 hPa SW 2.3 km/h 3.9 km/h 86% 0.0 mm CLR
07:19 25.4 °C 23.1 °C 1016.1 hPa WSW 2.9 km/h 3.7 km/h 87% 0.0 mm
07:24 25.4 °C 23.1 °C 1016.1 hPa WSW 2.9 km/h 3.7 km/h 87% 0.0 mm
07:29 25.4 °C 23.1 °C 1016.1 hPa WSW 2.9 km/h 3.7 km/h 87% 0.0 mm FEW
07:34 25.4 °C 23.1 °C 1016.1 hPa SSE 2.9 km/h 4.7 km/h 87% 0.0 mm FEW
07:39 25.3 °C 22.4 °C 1016.1 hPa SE 3.9 km/h 7.4 km/h 84% 0.0 mm
07:44 25.3 °C 22.4 °C 1016.1 hPa SE 3.9 km/h 7.4 km/h 84% 0.0 mm
07:49 25.3 °C 22.2 °C 1016.5 hPa SE 4.7 km/h 5.6 km/h 83% 0.0 mm
07:54 25.3 °C 22.4 °C 1016.5 hPa SW 4.7 km/h 7.4 km/h 84% 0.0 mm
07:59 25.3 °C 22.4 °C 1016.5 hPa South 5.0 km/h 9.3 km/h 84% 0.0 mm
08:04 25.3 °C 22.2 °C 1016.5 hPa SSW 5.0 km/h 9.3 km/h 83% 0.0 mm
08:09 25.3 °C 22.2 °C 1016.5 hPa WSW 6.9 km/h 7.4 km/h 83% 0.0 mm
08:14 25.4 °C 22.3 °C 1016.5 hPa SSW 6.9 km/h 7.4 km/h 83% 0.0 mm
08:19 25.4 °C 22.3 °C 1016.5 hPa WSW 5.0 km/h 5.6 km/h 83% 0.0 mm FEW
08:24 25.5 °C 22.4 °C 1016.5 hPa WSW 5.0 km/h 5.0 km/h 83% 0.0 mm FEW
08:29 25.6 °C 22.5 °C 1016.5 hPa WSW 3.9 km/h 9.3 km/h 83% 0.0 mm FEW
08:34 25.7 °C 22.6 °C 1016.8 hPa WSW 3.9 km/h 9.3 km/h 83% 0.0 mm BKN
08:39 25.7 °C 22.6 °C 1016.8 hPa West 5.0 km/h 7.4 km/h 83% 0.0 mm BKN
08:44 25.7 °C 22.4 °C 1016.8 hPa SW 5.0 km/h 7.4 km/h 82% 0.0 mm BKN
08:49 25.8 °C 22.5 °C 1016.8 hPa WSW 5.0 km/h 7.6 km/h 82% 0.0 mm BKN
08:54 25.9 °C 22.6 °C 1016.8 hPa SW 5.0 km/h 9.3 km/h 82% 0.0 mm BKN
08:59 26.1 °C 22.8 °C 1016.8 hPa West 5.0 km/h 7.4 km/h 82% 0.0 mm BKN
09:04 26.2 °C 22.7 °C 1016.8 hPa WSW 5.0 km/h 7.4 km/h 81% 0.0 mm BKN
09:09 26.2 °C 22.7 °C 1016.8 hPa West 4.7 km/h 7.4 km/h 81% 0.0 mm BKN
09:14 26.3 °C 22.8 °C 1016.8 hPa SW 4.7 km/h 7.4 km/h 81% 0.0 mm BKN
09:19 26.5 °C 22.8 °C 1016.8 hPa SW 4.7 km/h 5.6 km/h 80% 0.0 mm BKN
09:24 26.6 °C 22.7 °C 1016.8 hPa SW 4.7 km/h 7.4 km/h 79% 0.0 mm BKN
09:29 26.8 °C 22.8 °C 1016.8 hPa WSW 3.9 km/h 5.8 km/h 79% 0.0 mm BKN
09:34 26.9 °C 22.7 °C 1016.8 hPa SSW 3.9 km/h 7.4 km/h 78% 0.0 mm BKN
09:39 27.1 °C 22.7 °C 1016.8 hPa South 4.7 km/h 7.4 km/h 77% 0.0 mm BKN
09:44 27.2 °C 22.6 °C 1016.8 hPa West 4.7 km/h 7.4 km/h 76% 0.0 mm BKN
09:49 27.3 °C 22.7 °C 1016.8 hPa WNW 4.7 km/h 5.0 km/h 76% 0.0 mm BKN
09:54 27.6 °C 22.6 °C 1016.8 hPa WSW 4.7 km/h 7.4 km/h 74% 0.0 mm BKN
09:59 27.9 °C 22.6 °C 1016.8 hPa SSW 2.9 km/h 5.8 km/h 73% 0.0 mm BKN
10:04 28.0 °C 22.5 °C 1016.8 hPa SW 2.9 km/h 5.6 km/h 72% 0.0 mm BKN
10:09 28.1 °C 22.3 °C 1016.8 hPa SW 3.2 km/h 7.4 km/h 71% 0.0 mm BKN
10:14 28.1 °C 22.3 °C 1016.8 hPa SE 3.2 km/h 9.3 km/h 71% 0.0 mm BKN
10:19 28.2 °C 22.4 °C 1016.8 hPa South 4.7 km/h 5.6 km/h 71% 0.0 mm BKN
10:24 28.2 °C 22.4 °C 1016.8 hPa WSW 4.7 km/h 7.4 km/h 71% 0.0 mm BKN
10:29 28.3 °C 22.3 °C 1016.8 hPa West 4.7 km/h 7.4 km/h 70% 0.0 mm BKN
10:34 28.4 °C 22.4 °C 1016.8 hPa West 4.7 km/h 11.1 km/h 70% 0.0 mm BKN
10:39 28.4 °C 22.4 °C 1016.8 hPa SW 5.8 km/h 11.1 km/h 70% 0.0 mm BKN
10:44 28.4 °C 22.2 °C 1016.8 hPa SW 5.8 km/h 11.1 km/h 69% 0.0 mm BKN
10:49 28.3 °C 22.1 °C 1017.2 hPa WNW 6.4 km/h 6.4 km/h 69% 0.0 mm SCT
10:54 28.6 °C 22.3 °C 1017.2 hPa WNW 6.4 km/h 6.4 km/h 69% 0.0 mm SCT
10:59 29.0 °C 22.5 °C 1017.2 hPa WSW 2.9 km/h 9.3 km/h 68% 0.0 mm SCT
11:04 29.2 °C 22.2 °C 1017.2 hPa NNW 2.9 km/h 7.4 km/h 66% 0.0 mm SCT
11:09 29.4 °C 22.1 °C 1017.2 hPa NE 3.9 km/h 5.8 km/h 65% 0.0 mm SCT
11:14 29.7 °C 22.4 °C 1017.2 hPa ENE 3.9 km/h 7.4 km/h 65% 0.0 mm SCT
11:19 29.7 °C 22.4 °C 1017.2 hPa NE 5.0 km/h 7.4 km/h 65% 0.0 mm FEW
11:24 29.8 °C 22.3 °C 1017.2 hPa SE 5.0 km/h 5.6 km/h 64% 0.0 mm FEW
11:29 29.9 °C 22.1 °C 1017.2 hPa West 3.9 km/h 7.4 km/h 63% 0.0 mm FEW
11:34 30.0 °C 22.2 °C 1017.2 hPa ENE 3.9 km/h 5.6 km/h 63% 0.0 mm FEW
11:39 30.0 °C 21.9 °C 1017.2 hPa NW 5.0 km/h 7.4 km/h 62% 0.0 mm FEW
11:44 30.1 °C 22.3 °C 1017.2 hPa ENE 5.0 km/h 5.6 km/h 63% 0.0 mm FEW
11:49 30.4 °C 22.1 °C 1017.2 hPa West 2.9 km/h 5.6 km/h 61% 0.0 mm FEW
Murcia-Puente Tocinos, España
Compliments of Weather Underground - 2 mb

La estación de MeteoMurcia.com, publica sus datos en los siguientes proyectos:

Meteoclimatic www.awekas.at

W3Counter
Web Analytics